Location: Hilton Head Island
(32.2163°N, 80.7526°W)
Time: 16:10:24
(UTC-05:00)

Explorer 11/Cluster Stage 4 - Pass Details

Date: 24 February 2026
Orbit: 463 x 1176 km, 28.8° (Epoch: 6 March)

Event Time Altitude Azimuth Distance (km) Brightness Sun altitude
Rises 14:15:12 0° 270° (W) 3,022 9.9 42.3°
Reaches altitude 10° 14:17:57 10° 261° (W) 1,984 9.3 41.9°
Maximum altitude 14:22:01 33° 197° (SSW) 934 8.9 41.5°
Drops below altitude 10° 14:25:32 10° 132° (SE) 1,705 8.5 41.0°
Sets 14:27:45 0° 122° (ESE) 2,531 9.2 40.7°
